Location: *
(34.0486°S, 61.7880°E)
Time: 16:57:15
(UTC+00:00)

Okean-O - Pass Details

Date: 01 April 2020
Orbit: 639 x 640 km, 98.2° (Epoch: 26 May)

Event Time Altitude Azimuth Distance (km) Brightness Sun altitude
Rises 14:11:42 0° 157° (SSE) 2,976 5.8 -5.9°
Reaches altitude 10° 14:14:07 10° 147° (SSE) 2,058 4.9 -6.4°
Maximum altitude 14:18:10 33° 82° (E) 1,091 3.3 -7.2°
Drops below altitude 10° 14:22:10 10° 18° (NNE) 2,033 5.0 -8.0°
Sets 14:24:32 0° 8° (N) 2,933 5.9 -8.5°
